Flag Weather past 2 weeks in Cloppenburg, Lower Saxony, Germany

Now
55 °F

Cool.


Feels Like: 55 °F
Forecast: 52 / 60 °F
Wind: 3 mph from Southeast

Location: Meppen-Mil

Current Time: Oct 30, 2014 at 8:09:33 PM

Latest Report: Oct 30, 2014 at 7:20 PM


Visibility: 2 mi

Pressure: 30.18 "Hg

Humidity: 88%

Dew point: 52 °F

Location of CloppenburgLocation

Historic Weather in Cloppenburg — Graph

°F

Cloppenburg temperature yesterday

Maximum temperature yesterday: 50 °F (at 2:48 PM)
Minimum temperature yesterday: 45 °F (at 12:20 AM)
Average temperature yesterday: 48 °F

Past Weeks' High & Low Weather Summary

 TemperatureHumidityPressure
High72 °F (Oct 19, 1:20 PM)100% (Oct 16, 3:20 AM)30.24 "Hg (Oct 16, 3:20 AM)
Low43 °F (Oct 28, 7:20 AM)61% (Oct 19, 1:20 PM)29.39 "Hg (Oct 21, 4:20 PM)
Average54 °F85%29.98 "Hg
* Reported Oct 15 7:20 PM — Oct 30 6:20 PM, Cloppenburg, Weather by CustomWeather, © 2014

Note: Actual official high and low records may vary slightly from our data, if they occured in-between our weather recording intervals... More about our weather records

Advertising

Cloppenburg weather history for previous 24 hours

 ConditionsComfort  
Time TempWeatherWind HumidityBarometerVisibility
6:20 PM
Oct 30
55 °FCool.3 mph88%30.21 "Hg2 mi
5:20 PM55 °FCool.5 mph88%30.18 "Hg2 mi
4:20 PM55 °FCool.5 mph88%30.18 "Hg3 mi
3:20 PM54 °FCool.3 mph94%30.18 "Hg3 mi
2:20 PM54 °FPartly sunny.3 mph94%30.21 "Hg4 mi
1:20 PM54 °FPartly sunny.3 mph88%30.21 "Hg5 mi
12:20 PM52 °FPartly sunny.6 mph94%30.21 "Hg4 mi
11:20 AM52 °FPartly sunny.3 mph94%30.21 "Hg4 mi
10:47 AM52 °FPartly sunny.2 mph94%30.21 "Hg4 mi
10:20 AM50 °FFog.3 mph94%30.21 "Hg2 mi
10:01 AM50 °FFog.3 mph94%30.21 "Hg2 mi
9:20 AM50 °FFog.3 mph94%30.21 "Hg2 mi
8:20 AM50 °FFog.3 mph94%30.21 "Hg1 mi
7:20 AM50 °FDrizzle. Fog.3 mph94%30.18 "Hg1 mi
6:20 AM50 °FCool.2 mph94%30.18 "Hg2 mi
5:20 AM50 °FCool.2 mph94%30.18 "Hg1 mi
4:20 AM50 °FCool.3 mph94%30.18 "Hg1 mi
3:20 AM50 °FCool.3 mph94%30.15 "Hg1 mi
2:20 AM50 °FCool.3 mph94%30.15 "Hg1 mi
1:20 AM50 °FCool.3 mph94%30.15 "Hg2 mi
12:20 AM50 °FCool.5 mph94%30.15 "Hg3 mi
11:20 PM
Oct 29
50 °FCool.2 mph94%30.12 "Hg3 mi
10:20 PM50 °FCool.1 mph94%30.12 "Hg2 mi
9:20 PM50 °FCool.2 mph94%30.12 "Hg2 mi
8:20 PM50 °FCool.3 mph94%30.09 "Hg2 mi
Weather by CustomWeather, © 2014

See weather overviewHow to use our weather pages